HUN3TA EKCH-LHBP

Flight info

Callsign HUN3TA
Flight time 1h 25m
Altitude 37000
Route SALLO M44 KOGIM M602 BINKA DCT ROVEK DCT DIMEX DCT VALPI DCT NIT/N0394F230 M748 ARFOX
Aircraft A21N/M-SDE2E3FGHIJ1RWXY/LB1

Departure

Time 2026-04-25 09:37
Airport Copenhagen Kastrup Airport (EKCH)

Arrival

Time 2026-04-25 11:02
Airport Budapest Liszt Ferenc International Airport (LHBP)
Time Latitude Longitude Altitude Speed Heading
2026-04-25 09:20 55.62429 12.65052 20 ft 0 kts 269°
2026-04-25 09:27 55.62429 12.65053 20 ft 1 kts 269°
2026-04-25 09:27 55.62430 12.65069 20 ft 1 kts 266°
2026-04-25 09:27 55.62431 12.65095 20 ft 2 kts 255°
2026-04-25 09:28 55.62436 12.65120 20 ft 2 kts 244°
2026-04-25 09:28 55.62444 12.65143 19 ft 2 kts 232°
2026-04-25 09:28 55.62454 12.65162 19 ft 2 kts 221°
2026-04-25 09:28 55.62466 12.65178 19 ft 2 kts 210°
2026-04-25 09:29 55.62480 12.65190 19 ft 2 kts 199°
2026-04-25 09:29 55.62494 12.65196 19 ft 2 kts 187°
2026-04-25 09:29 55.62504 12.65198 19 ft 0 kts 180°
2026-04-25 09:29 55.62510 12.65197 19 ft 0 kts 179°
2026-04-25 09:31 55.62502 12.65198 19 ft 2 kts 179°
2026-04-25 09:32 55.62481 12.65198 19 ft 3 kts 180°
2026-04-25 09:32 55.62448 12.65198 19 ft 5 kts 180°
2026-04-25 09:32 55.62405 12.65198 19 ft 6 kts 180°
2026-04-25 09:32 55.62357 12.65198 19 ft 7 kts 179°
2026-04-25 09:33 55.62310 12.65222 19 ft 7 kts 141°
2026-04-25 09:33 55.62292 12.65319 19 ft 9 kts 90°
2026-04-25 09:33 55.62294 12.65449 19 ft 11 kts 88°
2026-04-25 09:33 55.62297 12.65602 18 ft 13 kts 88°
2026-04-25 09:34 55.62299 12.65777 17 ft 14 kts 90°
2026-04-25 09:34 55.62309 12.65960 16 ft 15 kts 73°
2026-04-25 09:34 55.62279 12.66119 16 ft 15 kts 153°
2026-04-25 09:34 55.62182 12.66189 16 ft 15 kts 158°
2026-04-25 09:35 55.62085 12.66257 16 ft 15 kts 162°
2026-04-25 09:35 55.61984 12.66314 16 ft 15 kts 162°
2026-04-25 09:35 55.61882 12.66373 16 ft 15 kts 162°
2026-04-25 09:35 55.61780 12.66412 16 ft 14 kts 186°
2026-04-25 09:36 55.61691 12.66338 17 ft 13 kts 222°
2026-04-25 09:36 55.61643 12.66202 17 ft 13 kts 254°
2026-04-25 09:36 55.61642 12.66043 18 ft 13 kts 284°
2026-04-25 09:36 55.61718 12.65797 19 ft 46 kts 303°
2026-04-25 09:37 55.62033 12.64939 21 ft 117 kts 303°
2026-04-25 09:37 55.62580 12.63457 210 ft 157 kts 303°
2026-04-25 09:37 55.63167 12.61900 1045 ft 154 kts 303°
2026-04-25 09:37 55.63728 12.60392 1953 ft 149 kts 303°
2026-04-25 09:38 55.64288 12.58795 2530 ft 161 kts 300°
2026-04-25 09:38 55.64776 12.56918 3007 ft 178 kts 294°
2026-04-25 09:38 55.65210 12.54748 3419 ft 201 kts 292°
2026-04-25 09:38 55.65694 12.52277 3947 ft 220 kts 292°
2026-04-25 09:39 55.66190 12.49707 4721 ft 228 kts 291°
2026-04-25 09:39 55.66695 12.47058 5676 ft 230 kts 291°
2026-04-25 09:39 55.67174 12.44385 6614 ft 232 kts 285°
2026-04-25 09:40 55.66387 12.38753 8297 ft 260 kts 241°
2026-04-25 09:40 55.64970 12.36641 9086 ft 283 kts 216°
2026-04-25 09:40 55.63079 12.35513 9904 ft 295 kts 206°
2026-04-25 09:40 55.61054 12.34508 10579 ft 305 kts 203°
2026-04-25 09:41 55.58854 12.34131 10939 ft 341 kts 181°
2026-04-25 09:41 55.56485 12.35443 11271 ft 375 kts 155°
2026-04-25 09:41 55.54472 12.38529 11573 ft 401 kts 128°
2026-04-25 09:41 55.53258 12.43002 12013 ft 412 kts 101°
2026-04-25 09:42 55.53035 12.48008 12710 ft 410 kts 83°
2026-04-25 09:42 55.53229 12.52961 13436 ft 412 kts 81°
2026-04-25 09:42 55.53429 12.58063 14080 ft 419 kts 82°
2026-04-25 09:42 55.53527 12.63180 14718 ft 425 kts 84°
2026-04-25 09:43 55.53539 12.68471 15376 ft 430 kts 89°
2026-04-25 09:43 55.53084 12.73654 15958 ft 440 kts 105°
2026-04-25 09:43 55.51841 12.78632 16570 ft 444 kts 121°
2026-04-25 09:43 55.50173 12.83171 17212 ft 446 kts 126°
2026-04-25 09:44 55.48389 12.87657 17779 ft 450 kts 129°
2026-04-25 09:44 55.46237 12.91647 18416 ft 448 kts 143°
2026-04-25 09:44 55.43719 12.94619 19205 ft 438 kts 157°
2026-04-25 09:44 55.41006 12.96994 19856 ft 438 kts 160°
2026-04-25 09:45 55.38205 12.99307 20394 ft 442 kts 160°
2026-04-25 09:45 55.35447 13.01583 20929 ft 446 kts 160°
2026-04-25 09:45 55.32632 13.03936 21464 ft 450 kts 160°
2026-04-25 09:45 55.29817 13.06314 22003 ft 453 kts 159°
2026-04-25 09:46 55.26989 13.08718 22537 ft 455 kts 159°
2026-04-25 09:46 55.24142 13.11144 23060 ft 458 kts 159°
2026-04-25 09:46 55.21291 13.13576 23562 ft 461 kts 159°
2026-04-25 09:46 55.18379 13.16057 24028 ft 464 kts 159°
2026-04-25 09:47 55.15480 13.18518 24463 ft 468 kts 159°
2026-04-25 09:47 55.12582 13.20977 24915 ft 470 kts 159°
2026-04-25 09:47 55.09638 13.23472 25347 ft 473 kts 159°
2026-04-25 09:47 55.06679 13.25977 25791 ft 476 kts 159°
2026-04-25 09:48 55.03692 13.28503 26222 ft 478 kts 159°
2026-04-25 09:48 55.00726 13.31004 26656 ft 480 kts 159°
2026-04-25 09:48 54.97700 13.33551 27023 ft 483 kts 159°
2026-04-25 09:48 54.94702 13.36019 27371 ft 484 kts 161°
2026-04-25 09:49 54.91561 13.38078 27730 ft 482 kts 167°
2026-04-25 09:49 54.88354 13.39544 28089 ft 479 kts 173°
2026-04-25 09:49 54.85054 13.40532 28443 ft 478 kts 176°
2026-04-25 09:49 54.81778 13.41380 28766 ft 480 kts 177°
2026-04-25 09:50 54.78500 13.42212 29179 ft 480 kts 177°
2026-04-25 09:50 54.75187 13.43072 29632 ft 479 kts 176°
2026-04-25 09:50 54.71909 13.43941 30075 ft 478 kts 176°
2026-04-25 09:50 54.68631 13.44820 30515 ft 477 kts 176°
2026-04-25 09:51 54.65344 13.45702 30913 ft 476 kts 176°
2026-04-25 09:51 54.62122 13.46566 31287 ft 475 kts 176°
2026-04-25 09:51 54.58846 13.47440 31663 ft 474 kts 176°
2026-04-25 09:51 54.55619 13.48300 32008 ft 473 kts 176°
2026-04-25 09:52 54.52360 13.49165 32357 ft 472 kts 176°
2026-04-25 09:52 54.49156 13.50007 32681 ft 471 kts 177°
2026-04-25 09:52 54.45929 13.50829 32997 ft 471 kts 177°
2026-04-25 09:52 54.42695 13.51640 33299 ft 470 kts 177°
2026-04-25 09:53 54.39451 13.52465 33603 ft 470 kts 176°
2026-04-25 09:53 54.36254 13.53503 33900 ft 472 kts 173°
2026-04-25 09:53 54.33092 13.54865 34192 ft 473 kts 169°
2026-04-25 09:53 54.29929 13.56591 34464 ft 476 kts 165°
2026-04-25 09:54 54.26856 13.58638 34728 ft 477 kts 161°
2026-04-25 09:54 54.23881 13.60997 34970 ft 479 kts 157°
2026-04-25 09:54 54.20909 13.63575 35190 ft 478 kts 156°
2026-04-25 09:54 54.17959 13.66129 35376 ft 478 kts 158°
2026-04-25 09:55 54.15009 13.68758 35551 ft 479 kts 155°
2026-04-25 09:55 54.12138 13.71658 35729 ft 481 kts 151°
2026-04-25 09:55 54.09383 13.74847 35875 ft 484 kts 147°
2026-04-25 09:55 54.06746 13.78337 36004 ft 486 kts 143°
2026-04-25 09:56 54.04213 13.82159 36151 ft 488 kts 139°
2026-04-25 09:56 54.01770 13.86142 36290 ft 489 kts 138°
2026-04-25 09:56 53.99341 13.90126 36422 ft 489 kts 139°
2026-04-25 09:56 53.96880 13.94132 36516 ft 489 kts 139°
2026-04-25 09:57 53.94444 13.98067 36640 ft 490 kts 139°
2026-04-25 09:57 53.91949 14.02070 36772 ft 491 kts 139°
2026-04-25 09:57 53.89484 14.06013 36915 ft 492 kts 139°
2026-04-25 09:57 53.87004 14.09970 36911 ft 492 kts 139°
2026-04-25 09:58 53.82011 14.17926 36934 ft 492 kts 139°
2026-04-25 09:58 53.77061 14.25789 36930 ft 492 kts 139°
2026-04-25 09:59 53.72107 14.33716 36928 ft 492 kts 138°
2026-04-25 09:59 53.67185 14.41642 36958 ft 492 kts 138°
2026-04-25 10:00 53.62253 14.49549 36923 ft 491 kts 139°
2026-04-25 10:00 53.57322 14.57420 36926 ft 490 kts 139°
2026-04-25 10:01 53.52360 14.65311 36920 ft 491 kts 139°
2026-04-25 10:01 53.47418 14.73143 36916 ft 490 kts 139°
2026-04-25 10:02 53.42439 14.80849 36906 ft 490 kts 142°
2026-04-25 10:02 53.37007 14.87663 36917 ft 486 kts 150°
2026-04-25 10:03 53.31194 14.93157 36925 ft 482 kts 158°
2026-04-25 10:03 53.25091 14.97688 36911 ft 480 kts 160°
2026-04-25 10:04 53.19005 15.02151 36915 ft 480 kts 160°
2026-04-25 10:04 53.12899 15.06638 36919 ft 480 kts 160°
2026-04-25 10:05 53.06810 15.11108 36926 ft 479 kts 160°
2026-04-25 10:05 53.00710 15.15577 36931 ft 480 kts 160°
2026-04-25 10:06 52.94618 15.20025 36928 ft 480 kts 160°
2026-04-25 10:06 52.88518 15.24466 36924 ft 480 kts 160°
2026-04-25 10:07 52.82433 15.28883 36926 ft 480 kts 160°
2026-04-25 10:07 52.76342 15.33287 36932 ft 479 kts 160°
2026-04-25 10:08 52.70245 15.37686 36929 ft 479 kts 160°
2026-04-25 10:08 52.64164 15.42060 36920 ft 479 kts 160°
2026-04-25 10:09 52.58047 15.46444 36920 ft 479 kts 160°
2026-04-25 10:09 52.51949 15.50801 36932 ft 479 kts 160°
2026-04-25 10:10 52.45860 15.55141 36929 ft 479 kts 160°
2026-04-25 10:10 52.39722 15.59500 36939 ft 478 kts 160°
2026-04-25 10:11 52.33614 15.63827 36939 ft 478 kts 160°
2026-04-25 10:11 52.27549 15.68110 36946 ft 478 kts 161°
2026-04-25 10:12 52.21419 15.72425 36952 ft 478 kts 161°
2026-04-25 10:13 52.12255 15.78852 36954 ft 477 kts 160°
2026-04-25 10:13 52.06194 15.83085 36961 ft 477 kts 160°
2026-04-25 10:14 52.00110 15.87325 36964 ft 477 kts 160°
2026-04-25 10:14 51.94041 15.91543 36952 ft 477 kts 161°
2026-04-25 10:15 51.87959 15.95756 36938 ft 477 kts 161°
2026-04-25 10:15 51.81848 15.99974 36943 ft 477 kts 161°
2026-04-25 10:16 51.75727 16.04190 36947 ft 478 kts 161°
2026-04-25 10:16 51.69611 16.08386 36948 ft 478 kts 161°
2026-04-25 10:17 51.63494 16.12573 36955 ft 478 kts 161°
2026-04-25 10:17 51.57455 16.16948 36959 ft 479 kts 159°
2026-04-25 10:18 51.51429 16.21448 36955 ft 480 kts 159°
2026-04-25 10:18 51.45362 16.25948 36964 ft 480 kts 160°
2026-04-25 10:19 51.39313 16.30404 36968 ft 480 kts 160°
2026-04-25 10:19 51.33205 16.34883 36968 ft 480 kts 160°
2026-04-25 10:20 51.27154 16.39307 36968 ft 480 kts 160°
2026-04-25 10:20 51.21102 16.43721 36969 ft 480 kts 160°
2026-04-25 10:21 51.15028 16.48135 36978 ft 480 kts 160°
2026-04-25 10:21 51.08953 16.52537 36977 ft 482 kts 160°
2026-04-25 10:22 51.02879 16.56928 36971 ft 481 kts 160°
2026-04-25 10:22 50.96765 16.61330 36987 ft 483 kts 160°
2026-04-25 10:23 50.90631 16.65737 36983 ft 482 kts 161°
2026-04-25 10:23 50.84549 16.70098 36986 ft 481 kts 161°
2026-04-25 10:24 50.78459 16.74448 36989 ft 481 kts 161°
2026-04-25 10:24 50.72351 16.78799 36987 ft 481 kts 161°
2026-04-25 10:25 50.66231 16.83143 36989 ft 482 kts 161°
2026-04-25 10:25 50.60117 16.87472 36994 ft 481 kts 161°
2026-04-25 10:26 50.54032 16.91769 36998 ft 481 kts 161°
2026-04-25 10:26 50.47875 16.96107 36996 ft 481 kts 161°
2026-04-25 10:27 50.41790 17.00380 36995 ft 480 kts 161°
2026-04-25 10:27 50.35671 17.04661 36981 ft 481 kts 161°
2026-04-25 10:28 50.29546 17.08940 36986 ft 481 kts 161°
2026-04-25 10:28 50.23445 17.13187 36977 ft 481 kts 161°
2026-04-25 10:29 50.17302 17.17453 36983 ft 481 kts 161°
2026-04-25 10:29 50.11203 17.21675 36980 ft 481 kts 161°
2026-04-25 10:30 50.05069 17.25908 36985 ft 482 kts 161°
2026-04-25 10:30 49.98919 17.30145 36984 ft 481 kts 161°
2026-04-25 10:31 49.92830 17.34323 36987 ft 482 kts 161°
2026-04-25 10:31 49.86660 17.38546 36986 ft 481 kts 161°
2026-04-25 10:32 49.80526 17.42732 36989 ft 481 kts 161°
2026-04-25 10:32 49.74427 17.46887 36990 ft 480 kts 161°
2026-04-25 10:33 49.68276 17.51061 36992 ft 480 kts 161°
2026-04-25 10:33 49.62157 17.55203 36998 ft 481 kts 161°
2026-04-25 10:34 49.55990 17.59367 37004 ft 481 kts 161°
2026-04-25 10:34 49.49853 17.63500 37010 ft 481 kts 161°
2026-04-25 10:35 49.43720 17.67619 37011 ft 480 kts 162°
2026-04-25 10:35 49.37611 17.71710 37012 ft 480 kts 162°
2026-04-25 10:36 49.31472 17.75809 37013 ft 480 kts 162°
2026-04-25 10:36 49.25320 17.79906 37016 ft 479 kts 162°
2026-04-25 10:37 49.19220 17.83959 37016 ft 480 kts 162°
2026-04-25 10:37 49.13070 17.88031 37021 ft 481 kts 162°
2026-04-25 10:38 49.06946 17.91884 37026 ft 477 kts 166°
2026-04-25 10:38 49.00583 17.94690 37021 ft 471 kts 174°
2026-04-25 10:39 48.94198 17.96224 37012 ft 464 kts 181°
2026-04-25 10:39 48.87774 17.97078 37006 ft 463 kts 181°
2026-04-25 10:40 48.81314 17.97948 36461 ft 467 kts 181°
2026-04-25 10:40 48.78069 17.98392 35835 ft 469 kts 181°
2026-04-25 10:40 48.74857 17.98833 35164 ft 470 kts 181°
2026-04-25 10:40 48.71576 17.99283 34458 ft 471 kts 181°
2026-04-25 10:41 48.68329 17.99729 33728 ft 471 kts 181°
2026-04-25 10:41 48.65055 18.00178 33004 ft 472 kts 181°
2026-04-25 10:41 48.61793 18.00623 32280 ft 472 kts 181°
2026-04-25 10:41 48.58539 18.01069 31556 ft 472 kts 181°
2026-04-25 10:42 48.55307 18.01509 30818 ft 473 kts 181°
2026-04-25 10:42 48.52025 18.01956 30051 ft 473 kts 180°
2026-04-25 10:42 48.48758 18.02398 29287 ft 473 kts 180°
2026-04-25 10:42 48.45474 18.02842 28510 ft 474 kts 180°
2026-04-25 10:43 48.42250 18.03279 27903 ft 470 kts 180°
2026-04-25 10:43 48.39011 18.03722 27416 ft 463 kts 180°
2026-04-25 10:43 48.35819 18.04158 26922 ft 457 kts 180°
2026-04-25 10:43 48.32699 18.04614 26427 ft 454 kts 177°
2026-04-25 10:44 48.29625 18.05924 25898 ft 460 kts 159°
2026-04-25 10:44 48.26940 18.08479 25379 ft 463 kts 141°
2026-04-25 10:44 48.24720 18.11921 24907 ft 460 kts 133°
2026-04-25 10:44 48.22628 18.15503 24422 ft 457 kts 132°
2026-04-25 10:45 48.20546 18.19086 23927 ft 453 kts 132°
2026-04-25 10:45 48.18484 18.22598 23433 ft 450 kts 132°
2026-04-25 10:45 48.16434 18.26051 22944 ft 447 kts 133°
2026-04-25 10:45 48.14373 18.29495 22452 ft 444 kts 133°
2026-04-25 10:46 48.12312 18.32918 21960 ft 441 kts 133°
2026-04-25 10:46 48.10265 18.36309 21471 ft 438 kts 133°
2026-04-25 10:46 48.08234 18.39662 20980 ft 435 kts 133°
2026-04-25 10:46 48.06226 18.42974 20500 ft 432 kts 133°
2026-04-25 10:47 48.04232 18.46260 20013 ft 429 kts 133°
2026-04-25 10:47 48.02227 18.49561 19524 ft 426 kts 133°
2026-04-25 10:47 48.00244 18.52821 19104 ft 423 kts 133°
2026-04-25 10:47 47.98279 18.56045 19002 ft 423 kts 133°
2026-04-25 10:48 47.96300 18.59303 18961 ft 422 kts 132°
2026-04-25 10:48 47.94355 18.62531 18437 ft 424 kts 132°
2026-04-25 10:48 47.92362 18.65843 17577 ft 430 kts 133°
2026-04-25 10:48 47.90378 18.69135 16931 ft 429 kts 133°
2026-04-25 10:49 47.88406 18.72400 16408 ft 424 kts 132°
2026-04-25 10:49 47.86445 18.75642 15889 ft 420 kts 132°
2026-04-25 10:49 47.84503 18.78846 15349 ft 416 kts 132°
2026-04-25 10:49 47.82587 18.82005 14823 ft 412 kts 132°
2026-04-25 10:50 47.80672 18.85158 14189 ft 411 kts 132°
2026-04-25 10:50 47.78770 18.88287 13612 ft 408 kts 131°
2026-04-25 10:50 47.76862 18.91421 13079 ft 404 kts 131°
2026-04-25 10:50 47.74993 18.94489 12564 ft 400 kts 131°
2026-04-25 10:51 47.73145 18.97516 12060 ft 396 kts 131°
2026-04-25 10:51 47.71311 19.00518 11558 ft 392 kts 131°
2026-04-25 10:51 47.69495 19.03487 11071 ft 388 kts 131°
2026-04-25 10:51 47.67691 19.06434 10659 ft 381 kts 131°
2026-04-25 10:52 47.65961 19.09258 10465 ft 367 kts 131°
2026-04-25 10:52 47.64277 19.12001 10308 ft 354 kts 131°
2026-04-25 10:52 47.62642 19.14661 10165 ft 341 kts 131°
2026-04-25 10:52 47.61067 19.17222 10020 ft 328 kts 131°
2026-04-25 10:53 47.59565 19.19661 9752 ft 322 kts 131°
2026-04-25 10:53 47.58066 19.22097 9366 ft 319 kts 130°
2026-04-25 10:53 47.56573 19.24522 8992 ft 317 kts 131°
2026-04-25 10:53 47.55097 19.26913 8619 ft 314 kts 130°
2026-04-25 10:54 47.53625 19.29297 8256 ft 311 kts 130°
2026-04-25 10:54 47.52176 19.31643 7902 ft 309 kts 131°
2026-04-25 10:54 47.50732 19.33980 7545 ft 306 kts 131°
2026-04-25 10:54 47.49299 19.36293 7191 ft 304 kts 131°
2026-04-25 10:55 47.47892 19.38562 6849 ft 301 kts 131°
2026-04-25 10:55 47.46470 19.40854 6496 ft 299 kts 131°
2026-04-25 10:55 47.45079 19.43092 6153 ft 297 kts 131°
2026-04-25 10:55 47.43673 19.45355 5815 ft 294 kts 131°
2026-04-25 10:56 47.42313 19.47543 5486 ft 292 kts 131°
2026-04-25 10:56 47.40937 19.49752 5158 ft 290 kts 131°
2026-04-25 10:56 47.39572 19.51942 4831 ft 288 kts 131°
2026-04-25 10:56 47.38240 19.54079 4523 ft 285 kts 131°
2026-04-25 10:57 47.36856 19.56095 4368 ft 275 kts 145°
2026-04-25 10:57 47.35131 19.56973 4214 ft 258 kts 182°
2026-04-25 10:57 47.33476 19.56270 3915 ft 244 kts 221°
2026-04-25 10:57 47.32302 19.54561 3664 ft 236 kts 233°
2026-04-25 10:58 47.31222 19.52763 3388 ft 235 kts 233°
2026-04-25 10:58 47.30414 19.50736 3035 ft 227 kts 263°
2026-04-25 10:58 47.30558 19.48517 2871 ft 215 kts 295°
2026-04-25 10:58 47.31414 19.46757 2903 ft 211 kts 314°
2026-04-25 10:59 47.32433 19.45217 2927 ft 211 kts 313°
2026-04-25 10:59 47.33440 19.43639 2950 ft 211 kts 313°
2026-04-25 10:59 47.34448 19.42038 2689 ft 213 kts 312°
2026-04-25 10:59 47.35448 19.40456 2492 ft 207 kts 312°
2026-04-25 11:00 47.36396 19.38939 2429 ft 196 kts 311°
2026-04-25 11:00 47.37298 19.37480 2087 ft 190 kts 311°
2026-04-25 11:00 47.38169 19.36067 1641 ft 186 kts 311°
2026-04-25 11:00 47.39010 19.34705 1403 ft 168 kts 311°
2026-04-25 11:01 47.39750 19.33507 1161 ft 151 kts 311°
2026-04-25 11:01 47.40417 19.32424 944 ft 136 kts 311°
2026-04-25 11:01 47.41032 19.31399 761 ft 132 kts 311°
2026-04-25 11:01 47.41658 19.30389 635 ft 133 kts 314°
2026-04-25 11:02 47.42289 19.29414 477 ft 133 kts 312°
2026-04-25 11:02 47.42897 19.28405 428 ft 125 kts 311°
2026-04-25 11:02 47.43315 19.27736 447 ft 46 kts 314°
2026-04-25 11:02 47.43501 19.27435 457 ft 35 kts 311°
2026-04-25 11:03 47.43648 19.27187 464 ft 28 kts 308°
2026-04-25 11:03 47.43733 19.26954 470 ft 23 kts 284°
2026-04-25 11:03 47.43768 19.26738 474 ft 19 kts 283°
2026-04-25 11:03 47.43794 19.26558 477 ft 16 kts 280°
2026-04-25 11:04 47.43756 19.26418 477 ft 14 kts 224°
2026-04-25 11:04 47.43679 19.26320 477 ft 14 kts 218°
2026-04-25 11:04 47.43603 19.26224 477 ft 14 kts 223°
2026-04-25 11:04 47.43530 19.26120 476 ft 14 kts 223°
2026-04-25 11:05 47.43473 19.26051 475 ft 7 kts 186°
2026-04-25 11:05 47.43429 19.26101 475 ft 9 kts 136°
2026-04-25 11:05 47.43415 19.26122 475 ft 0 kts 132°